Caldwell, NJ

1:01 PM EDT on March 27, 2017 (GMT -0400)
Essex County

Weather History for KCDW - April, 2014

Change the Weather History Date:

Monday, April 14, 2014

  Actual Average Record
Temperature  
Mean Temperature 70 °F -  
Max Temperature 78 °F 60 °F 86 °F (1977)
Min Temperature 62 °F 36 °F 24 °F (1950)
Cooling Degree Days 4    
Growing Degree Days 20 (Base 50)    
Moisture  
Dew Point 54 °F    
Average Humidity 62    
Maximum Humidity 80    
Minimum Humidity 40    
Precipitation  
Precipitation 0.00 in - - ()
Sea Level Pressure  
Sea Level Pressure 29.94 in    
Wind  
Wind Speed 8 mph (SSW)    
Max Wind Speed 16 mph    
Max Gust Speed 29 mph    
Visibility 10 miles    
Events      
Averages and records for this station are not official NWS values.
T = Trace of Precipitation, MM = Missing Value Source: NWS Daily Summary

Daily Weather History Graph

Daily Weather History Graph

Search for Another Location

Airport or City:

Trip Planner

Search our weather history database for the weather conditions in past years. The results will help you decide how hot, cold, wet, or windy it might be!

Date:

Astronomy

Apr. 14, 2014 Rise Set
Actual Time 6:19 AM EDT 7:35 PM EDT
Civil Twilight 5:51 AM EDT 8:04 PM EDT
Nautical Twilight 5:17 AM EDT 8:38 PM EDT
Astronomical Twilight 4:41 AM EDT 9:14 PM EDT
Moon 7:11 PM EDT (4/14) 5:50 AM EDT (4/14)
Length of Visible Light 14h 12m
Length of Day
13h 15m
Full, 100% of the Moon is Illuminated
Apr 14
Full
Apr 15
Full
Apr 22
Last Quarter
Apr 29
New
May 6
First Quarter

Hourly Weather History & Observations

Time (EDT) Temp. Dew Point Humidity Pressure Visibility Wind Dir Wind Speed Gust Speed Precip Events Conditions
12:53 AM 64.9 °F 54.0 °F 68% 30.03 in 10.0 mi Variable 5.8 mph - N/A   Clear
1:53 AM 64.0 °F 55.0 °F 73% 30.02 in 10.0 mi SSW 4.6 mph - N/A   Clear
2:53 AM 63.0 °F 55.9 °F 78% 30.01 in 10.0 mi SSW 4.6 mph - N/A   Clear
3:53 AM 63.0 °F 55.9 °F 78% 30.00 in 10.0 mi Variable 6.9 mph - N/A   Clear
5:53 AM 62.1 °F 55.9 °F 80% 29.99 in 10.0 mi SW 6.9 mph - N/A   Clear
6:53 AM 62.1 °F 55.9 °F 80% 30.00 in 10.0 mi Variable 4.6 mph - N/A   Clear
7:53 AM 64.0 °F 55.0 °F 73% 30.00 in 10.0 mi SW 9.2 mph - N/A   Clear
8:53 AM 66.9 °F 55.0 °F 66% 30.00 in 10.0 mi SSW 10.4 mph 17.3 mph N/A   Clear
9:53 AM 66.9 °F 55.0 °F 66% 30.00 in 10.0 mi Variable 6.9 mph 18.4 mph N/A   Mostly Cloudy
10:53 AM 71.1 °F 55.9 °F 59% 29.99 in 10.0 mi SW 8.1 mph 19.6 mph N/A   Partly Cloudy
11:53 AM 73.0 °F 55.0 °F 53% 29.97 in 10.0 mi SW 11.5 mph 21.9 mph N/A   Mostly Cloudy
12:53 PM 75.0 °F 54.0 °F 48% 29.94 in 10.0 mi SSW 16.1 mph 28.8 mph N/A   Scattered Clouds
2:53 PM 75.9 °F 52.0 °F 43% 29.91 in 10.0 mi SSW 12.7 mph 25.3 mph N/A   Scattered Clouds
3:53 PM 77.0 °F 51.1 °F 40% 29.88 in 10.0 mi WSW 12.7 mph 23.0 mph N/A   Partly Cloudy
5:53 PM 75.9 °F 51.1 °F 42% 29.86 in 10.0 mi SSW 12.7 mph 23.0 mph N/A   Clear
6:53 PM 73.9 °F 50.0 °F 43% 29.86 in 10.0 mi SW 9.2 mph 21.9 mph N/A   Clear
7:53 PM 72.0 °F 52.0 °F 49% 29.87 in 10.0 mi SSW 8.1 mph 18.4 mph N/A   Clear
8:53 PM 69.1 °F 54.0 °F 58% 29.88 in 10.0 mi South 11.5 mph 20.7 mph N/A   Clear
9:53 PM 66.9 °F 55.0 °F 66% 29.88 in 10.0 mi SW 5.8 mph - N/A   Clear
10:53 PM 66.0 °F 55.0 °F 68% 29.88 in 10.0 mi Variable 5.8 mph - N/A   Clear
11:53 PM 64.9 °F 55.9 °F 73% 29.86 in 10.0 mi SSW 6.9 mph - N/A   Clear